STARLINK-4660, 53609

Orbit data source: Space-Track

STARLINK-4660, 53609 is a payload satellite owned by SpaceX/Seattle (US) in LEO that was launched on Sun, 28 Aug 2022 UTC via an FALCON 9 launch vehicle from the Air Force Eastern Test Range (AFETR). Payload-class satellites include a variety of spacecraft equipped with specific instruments for various scientific and technological missions. These include communications satellites like Starlink; space stations such as the ISS; scientific satellites like the Hubble; Earth observation satellites from companies like Planet Labs, Umbra, and HawkEye 360; GPS; miniature CubeSats for education and research; and military/defense satellites.

Loading next visibility...
Identifier
53609, 2022-104X
Orbit
LEO
Country
Flag of USUS
Related business
Manufacturer
SpaceX/Seattle
Mission
Operational Commercial Communications
Bus & Motor
STARLINK, Unknown motor
Mass
300 kg wet, ~290 kg dry
Launch date (UTC)
2022-08-28 (3 years ago)
Launch vehicle
FALCON 9
Launch site
Air Force Eastern Test Range (AFETR)
Object type
Payload
Rocket body
Debris
Shape & HBR
Box + 1 Pan, 10.1 m
Radar Cross Section
13.562 m², Large (>1 m²)

Expand to show TLE details & history
Last TLE update: 10 hours ago

TLE from 10 hours ago
0 STARLINK-4660
1 53609U 22104X   26036.98934384  .00001279  00000-0  98424-4 0  9997
2 53609  53.2177  21.1296 0001397  89.4791 270.6361 15.08834676190901
Epoch: 2026-02-05T23:44Z
TLE epoch observation values (Epoch: 2026-02-05T23:44:39.307Z)
Latitude
-0.00006°
Longitude
-111.16788°
Altitude
540.647 km
Speed
7.593 km/s
True Right ascension
01h 24m 31s
True Declination
0° 00' 00"
Sunlit
Object was in daylight at epoch
Visualization orbit readout
Latitude
Unknown
Longitude
Unknown
Altitude
Unknown
Speed
Unknown
Apparent Right ascension
Unknown
Apparent Declination
Unknown
Sunlit
N/A
Visualization observer readout
Local Sidereal Time
12:05:25
Azimuth
Unknown
Elevation
Unknown
Doppler factor
Unknown
Orbital elements
Apogee altitude
540.971 km
Perigee altitude
539.038 km
Semi-major axis
6,918.142 km
Eccentricity
0.00014
Inclination
53.2177°
RAAN
21.1296°
Arg. of periapsis
89.4791°
True anomaly
270.62009°
Mean anomaly
270.6361°
Eccentric anomaly
270.6281°
Mean motion
3.77189 °/min
Orbital period
95.44 mins
BSTAR
0.000098424
Loading maneuver chart data...
Computing Atmospheric mass density...
Loading historical data...
Loading historical data...
Loading historical data...
Loading historical data...
Loading historical data...
Loading historical data...
Loading historical data...

Documentation

Showing up to 5 results
|